This demonstration page uses our WeatherBlox Daily Observations layout. Learn more.

Left ArrowRight Arrow

Hourly Observations for February 3, 2022

Temp ( °F °C ) Dew Point ( °F °C ) Humidity (%) Winds ( mph kmh ) Pressure ( in mb ) Visibility ( mi km ) Precip ( " mm )
12:53 am 00:53 Clear -12 -24.4 -17 -27.2 78 78 Calm 30.28 1025 10 16 0.00 0.00
1:53 am 01:53 Clear -12 -24.4 -17 -27.2 78 78 Calm 30.26 1025 10 16 0.00 0.00
2:53 am 02:53 Clear -14 -25.6 -18 -27.8 82 82 SW 6 9 30.25 1024 10 16 0.00 0.00
3:53 am 03:53 Clear -12 -24.4 -17 -27.2 78 78 Calm 30.23 1024 10 16 0.00 0.00
4:53 am 04:53 Clear -11 -23.9 -17 -27.2 74 74 Calm 30.24 1024 10 16 0.00 0.00
5:53 am 05:53 Clear -11 -23.9 -17 -27.2 74 74 NW 3 6 30.27 1025 10 16 0.00 0.00
6:53 am 06:53 Clear -10 -23.3 -15 -26.1 78 78 Calm 30.29 1026 10 16 0.00 0.00
7:53 am 07:53 Sunny -1 -18.3 -6 -21.1 79 79 SW 14 22 30.25 1024 10 16 0.00 0.00
8:53 am 08:53 Cloudy 3 -16.1 -3 -19.4 76 76 WSW 10 17 30.30 1026 10 16 0.00 0.00
9:53 am 09:53 Mostly Cloudy 5 -15 -3 -19.4 69 69 SW 13 20 30.32 1027 10 16 0.00 0.00
10:53 am 10:53 Mostly Cloudy 12 -11.1 3 -16.1 67 67 SW 16 26 30.31 1027 10 16 0.00 0.00
11:53 am 11:53 Cloudy 17 -8.3 6 -14.4 62 62 SW 16 26 30.31 1026 10 16 0.00 0.00
12:53 pm 12:53 Sunny 19 -7.2 6 -14.4 57 57 W 10 17 30.33 1027 10 16 0.00 0.00
1:53 pm 13:53 Mostly Cloudy 17 -8.3 6 -14.4 62 62 WNW 15 24 30.37 1028 10 16 0.00 0.00
2:53 pm 14:53 Cloudy 13 -10.6 4 -15.6 67 67 NW 12 19 30.41 1030 10 16 0.00 0.00
3:53 pm 15:53 Cloudy 12 -11.1 4 -15.6 70 70 NW 12 19 30.46 1032 10 16 0.00 0.00
4:53 pm 16:53 Cloudy 12 -11.1 3 -16.1 67 67 NW 8 13 30.48 1032 10 16 0.00 0.00
5:53 pm 17:53 Mostly Cloudy 10 -12.2 2 -16.7 69 69 NNW 7 11 30.50 1033 10 16 0.00 0.00
6:53 pm 18:53 Cloudy 9 -12.8 2 -16.7 73 73 NW 5 7 30.52 1034 10 16 0.00 0.00
7:53 pm 19:53 Cloudy 9 -12.8 1 -17.2 70 70 NW 5 7 30.55 1035 10 16 0.00 0.00
8:53 pm 20:53 Cloudy 8 -13.3 1 -17.2 73 73 NW 5 7 30.53 1034 10 16 0.00 0.00
9:53 pm 21:53 Cloudy 8 -13.3 1 -17.2 73 73 NW 6 9 30.55 1035 10 16 0.00 0.00
10:53 pm 22:53 Cloudy 8 -13.3 1 -17.2 73 73 Calm 30.54 1034 10 16 0.00 0.00
11:53 pm 23:53 Cloudy 9 -12.8 1 -17.2 70 70 ENE 3 6 30.52 1034 10 16 0.00 0.00

Powered by AerisWeather